Location: Wingville
(42.9917°N, 90.4915°W)
Time: 01:13:01
(UTC+00:00)

DIWATA 2B (PO-101) - Visible Passes

Search period start: 29 June 2022 00:00
Search period end: 09 July 2022 00:00
Orbit: 585 x 597 km, 98.0° (Epoch: 28 June)

Date Brightness Start Highest point End Pass type
(mag) Time Alt. Az. Time Alt. Az. Time Alt. Az.
29 Jun ? 07:48:48 35° SSE 07:50:31 76° ENE 07:54:45 10° N visible
30 Jun ? 07:57:16 38° SSE 07:58:51 87° WSW 08:03:06 10° NNW visible
01 Jul ? 06:30:44 10° E 06:32:16 12° ENE 06:33:49 10° NE visible
01 Jul ? 08:05:43 39° S 08:07:12 71° W 08:11:25 10° NNW visible
02 Jul ? 06:38:16 10° E 06:40:30 14° ENE 06:42:45 10° NNE visible
02 Jul ? 08:14:10 37° SSW 08:15:33 57° W 08:19:43 10° NNW visible
03 Jul ? 06:46:04 10° ESE 06:48:46 17° ENE 06:51:29 10° NNE visible
03 Jul ? 08:22:38 34° SW 08:23:54 45° W 08:27:58 10° NNW visible
04 Jul ? 06:54:31 13° ESE 06:57:01 20° ENE 07:00:07 10° NNE visible
04 Jul ? 08:31:05 30° SW 08:32:16 37° W 08:36:12 10° NNW visible
05 Jul ? 07:02:59 16° ESE 07:05:16 24° ENE 07:08:42 10° NNE visible
05 Jul ? 08:39:33 26° SW 08:40:39 30° W 08:44:24 10° NW visible
06 Jul ? 07:11:27 19° ESE 07:13:33 29° ENE 07:17:13 10° N visible
06 Jul ? 08:48:00 22° WSW 08:49:02 25° W 08:52:32 10° NW visible
07 Jul ? 07:19:55 23° ESE 07:21:50 35° ENE 07:25:42 10° N visible
07 Jul ? 08:56:28 19° WSW 08:57:26 20° W 09:00:36 10° NW visible
08 Jul ? 07:28:23 28° SE 07:30:08 43° ENE 07:34:08 10° N visible
08 Jul ? 09:04:56 16° WSW 09:05:50 17° W 09:08:34 10° NW visible
